Location: Binningen
(47.7924°N, 8.7261°E)
Time: 04:33:34
(UTC+00:00)

Cosmos 1707 Rocket - Pass Details

Date: 17 May 2021
Orbit: 605 x 631 km, 82.5° (Epoch: 14 June)

Event Time Altitude Azimuth Distance (km) Brightness Sun altitude
Exits shadow 20:58:17 23° 173° (S) 1,306 4.7 -15.4°
Maximum altitude 21:00:53 67° 97° (E) 679 3.5 -15.7°
Drops below altitude 10° 21:05:18 10° 14° (NNE) 2,008 6.8 -16.1°
Sets 21:07:34 0° 12° (NNE) 2,924 7.7 -16.3°
